Theta_e
314 314 315 318 321 323 323 324 323 320 319 319 317 317 314 311 310 308 306 305 303 301 302 300 299 300 298 298 298 298 297 297 294 293 292 292 290 289 290 290 290 289 290
313 313 313 313 311 311 318 319 318 316 317 317 314 311 310 307 307 306 304 304 302 299 299 298 297 297 297 296 295 293 292 291 291 287 289 289 288 288 288 287 289 289 289
312 311 312 310 310 310 312 313 312 313 310 308 307 306 305 304 305 305 303 302 301 299 298 297 295 294 291 291 291 290 290 289 289 287 286 287 287 287 286 287 287 287 290
310 310 308 309 309 309 309 307 307 306 304 302 304 304 300 300 298 297 297 298 297 295 294 294 292 291 290 289 288 288 288 287 286 286 285 285 285 285 285 284 282 285 284
307 307 307 305 304 305 302 300 298 298 298 297 297 298 294 294 292 293 293 294 291 290 289 288 290 289 289 290 288 287 287 286 285 285 284 284 283 282 281 283 282 283 283
304 305 306 304 297 295 294 292 292 292 293 293 293 293 293 289 294 294 293 291 289 288 287 287 286 285 287 288 289 289 288 285 282 284 283 281 281 282 282 281 280 278 276
301 301 299 296 293 293 292 291 291 291 291 290 291 292 292 291 292 292 291 289 288 287 286 286 285 285 286 286 287 287 286 287 287 284 281 282 281 282 282 277 277 277 277
297 297 295 293 291 290 289 289 288 289 289 290 290 291 291 291 291 291 289 288 288 287 286 286 285 285 286 285 284 284 283 284 283 283 283 283 283 282 281 280 278 277 279
295 294 291 291 289 288 287 287 288 288 287 288 289 290 289 288 291 289 288 287 286 285 286 286 286 285 287 287 284 282 282 281 282 282 283 284 282 281 280 278 274 273 273
293 293 291 290 289 288 288 287 286 287 286 287 287 287 287 287 290 289 288 286 284 284 284 284 285 285 287 287 283 281 279 280 279 278 280 280 279 279 278 278 276 270 272
290 289 289 289 288 289 287 286 286 286 285 286 285 286 286 287 288 289 289 285 285 283 283 282 283 286 287 286 284 282 281 280 278 277 277 278 277 277 276 276 276 274 271
287 287 286 287 287 287 287 285 285 286 285 285 285 285 285 285 287 289 289 287 287 284 283 283 284 286 285 284 282 282 281 279 277 276 276 275 275 274 274 274 274 274 274
284 285 285 286 286 286 286 285 285 285 286 285 284 284 284 285 286 288 288 288 287 285 284 284 285 286 285 283 281 281 277 275 275 275 275 274 273 273 273 273 273 274 273
284 284 284 285 285 285 286 286 286 285 285 285 284 284 284 284 285 286 286 286 285 284 284 283 284 284 283 280 278 277 274 275 274 275 274 273 272 271 271 271 269 270 268
284 282 283 284 284 284 284 285 285 286 287 285 285 285 284 283 284 286 286 285 284 283 282 282 279 276 275 275 274 273 272 271 271 272 271 270 270 270 270 269 268 266 265
282 281 282 282 282 282 283 283 286 287 287 288 288 287 286 287 287 287 287 287 285 284 279 277 276 275 273 273 272 271 271 270 272 271 270 270 269 269 268 268 267 265 262
280 282 282 280 281 282 282 282 282 283 285 285 286 287 287 286 287 287 287 287 285 283 277 276 275 274 274 274 273 272 270 270 271 270 269 269 268 267 262 265 265 264 262
278 279 279 281 281 281 282 282 282 282 281 281 284 285 286 286 286 287 287 286 281 281 277 276 275 275 275 275 274 272 271 270 268 268 268 267 266 266 265 263 263 260 260
276 279 279 280 281 280 281 281 282 281 282 282 282 284 284 285 286 286 287 283 280 279 278 276 277 276 275 275 274 273 271 268 267 267 267 266 265 264 263 263 261 259 258
277 275 275 277 279 280 280 280 280 281 281 281 281 282 283 283 282 282 283 283 281 280 279 277 276 276 275 274 273 271 270 268 267 266 266 265 265 263 263 261 261 259 259
274 276 274 276 278 278 279 279 280 280 280 281 282 283 284 282 281 282 282 282 282 281 281 280 276 274 274 273 271 269 268 266 266 265 265 265 264 262 262 262 261 258 258
273 273 275 275 276 277 278 278 279 279 279 280 281 282 284 283 282 282 283 283 283 284 282 279 275 273 272 271 270 268 267 266 265 265 265 264 262 262 262 261 260 260 259
271 271 272 273 275 275 276 277 277 277 278 278 279 279 281 281 282 282 282 283 283 283 280 276 274 272 271 270 270 269 267 267 267 266 264 262 261 261 260 259 259 258 258
269 269 270 271 272 272 272 273 274 274 275 275 276 277 278 279 279 281 281 282 282 278 277 274 274 272 270 269 268 268 268 268 267 265 264 262 261 260 260 259 259 258 258
267 267 268 269 269 270 270 271 271 272 272 273 274 274 275 276 276 277 278 280 279 275 273 272 272 271 270 268 267 266 266 267 265 264 263 262 261 260 259 259 258 257 257
264 265 266 267 267 267 268 268 268 269 270 271 272 272 273 273 274 275 275 276 276 274 273 271 269 269 268 267 266 265 265 266 262 262 261 260 260 259 259 257 257 257 256
Wind_Speed
9 9 9 8 10 7 7 7 6 6 7 8 8 7 7 6 7 7 7 8 8 7 6 8 7 7 5 4 3 2 3 2 2 3 2 3 2 4 5 5 4 5 5
8 8 8 8 8 8 9 6 6 7 8 7 7 6 6 7 8 9 9 8 9 8 7 7 7 4 6 6 4 4 3 2 2 3 3 2 1 3 4 4 4 4 4
7 7 7 6 7 8 7 5 8 9 6 6 7 8 7 7 8 8 8 7 7 8 7 7 8 8 6 4 4 4 4 3 3 2 2 1 1 2 3 3 4 5 4
7 7 8 8 7 7 5 7 7 6 7 7 6 6 6 5 6 7 8 9 8 7 6 7 7 7 8 8 6 5 5 5 4 3 2 2 1 1 1 2 4 2 6
6 7 7 4 3 5 6 5 6 6 5 6 7 6 6 6 5 9 8 8 10 9 7 6 5 6 7 6 5 5 5 3 3 3 2 2 1 1 1 2 2 4 7
9 9 7 7 5 4 4 5 5 6 6 7 6 7 7 4 11 14 12 10 10 10 10 7 6 7 7 7 9 8 5 4 3 2 2 2 2 1 2 3 3 4 4
9 8 5 5 5 5 4 5 6 6 6 6 7 8 8 8 15 16 14 9 10 9 10 9 7 5 6 6 9 10 8 7 5 3 3 2 2 0 1 2 1 2 3
9 9 5 6 5 5 4 4 4 4 5 6 6 7 8 8 17 17 14 10 9 10 10 10 9 9 7 7 7 6 5 4 3 2 2 2 1 3 1 2 2 3 5
8 8 6 6 5 5 4 4 3 5 4 4 4 6 8 9 18 19 14 9 9 10 9 10 10 10 12 13 7 7 5 4 4 3 3 4 5 4 4 1 2 2 2
7 7 7 6 6 7 6 5 1 1 3 3 4 4 5 9 18 20 13 7 9 8 7 7 9 8 16 15 7 7 6 5 5 3 3 3 3 3 5 3 1 1 1
2 5 7 8 8 7 7 5 4 3 3 3 4 3 4 7 12 20 17 8 8 8 7 7 6 14 15 15 10 6 5 7 6 3 2 2 1 1 2 2 2 1 1
1 1 4 5 4 5 7 6 7 6 6 6 6 5 4 5 10 18 18 12 13 8 8 7 8 18 16 14 9 9 11 9 4 4 3 3 2 1 1 2 1 1 2
3 2 2 3 3 4 6 7 6 7 7 7 6 6 6 5 5 16 18 15 15 7 6 10 15 18 16 12 10 12 8 4 4 4 4 3 2 1 1 2 2 1 3
3 3 3 2 3 3 3 4 5 6 7 7 7 8 7 7 7 8 8 9 12 8 13 10 13 12 11 8 6 7 3 3 4 4 4 3 2 2 2 0 1 1 1
4 4 3 2 1 2 4 4 5 6 7 7 8 8 9 9 11 13 13 10 9 9 10 8 7 5 6 6 5 5 4 4 5 4 4 4 3 2 3 1 1 1 1
4 4 3 2 1 2 2 3 8 8 9 10 9 9 6 8 15 19 19 18 18 21 7 9 8 8 8 8 8 7 6 7 6 5 4 4 4 4 2 2 2 2 1
5 4 3 2 2 3 3 4 5 5 11 12 13 11 12 11 17 22 23 22 23 22 9 9 9 9 9 9 9 9 8 7 6 6 5 5 4 3 2 2 3 2 1
4 3 2 3 3 3 3 4 5 5 5 5 14 13 15 16 18 22 23 21 11 17 8 9 10 9 10 11 10 9 8 8 7 7 6 6 5 5 4 3 3 3 1
5 4 4 3 3 4 4 5 5 6 6 5 3 10 13 18 18 21 25 13 13 13 12 11 10 10 10 10 9 9 10 9 9 8 8 7 6 6 5 4 3 4 3
5 6 4 4 4 4 4 5 5 6 6 6 6 7 6 8 9 10 12 13 12 11 12 12 11 9 10 10 10 10 9 9 9 9 8 8 7 7 6 5 4 3 5
4 4 4 3 4 5 6 6 6 6 6 7 7 7 13 10 10 11 11 13 13 12 12 11 10 10 10 9 9 9 10 9 9 9 8 8 7 6 5 5 5 4 3
5 5 5 6 6 5 5 5 6 7 7 8 7 7 17 10 9 10 11 11 11 12 10 8 8 8 9 10 11 10 11 11 11 10 9 9 8 7 6 6 5 5 5
6 7 6 5 6 7 6 6 6 7 8 8 8 7 7 9 10 11 11 10 10 9 9 9 10 9 9 10 11 12 13 14 12 11 11 10 9 8 8 7 6 5 6
6 6 6 6 6 6 6 7 7 8 8 8 9 8 8 9 10 12 10 10 10 7 8 9 11 13 11 11 10 10 9 7 9 11 13 10 9 9 7 7 7 8 6
6 6 6 6 7 7 8 8 8 8 8 8 8 8 9 10 9 9 10 10 7 7 9 9 9 12 16 18 15 16 15 16 12 12 9 11 11 12 9 8 7 6 6
6 7 7 6 6 7 7 8 8 8 8 8 8 8 9 9 9 9 9 9 10 7 9 7 9 14 14 13 15 17 18 17 14 14 10 9 10 9 8 9 11 7 7
Wind_Direction
188 194 197 209 215 209 207 207 202 153 175 188 170 179 156 146 143 134 135 142 129 121 122 129 123 131 128 118 102 107 125 181 203 116 87 79 46 25 11 358 358 351 347
182 184 196 201 202 212 217 201 147 186 195 184 157 152 150 151 151 143 142 142 140 136 136 128 132 139 130 140 145 144 132 89 113 141 51 23 27 358 3 323 339 332 328
192 184 193 200 200 205 201 192 191 193 157 139 142 152 156 158 155 136 138 134 133 138 142 141 146 143 146 141 141 140 137 127 97 105 115 34 324 4 331 334 344 316 324
203 196 210 201 196 192 174 188 180 157 150 142 147 146 136 139 124 118 126 132 129 123 123 141 147 152 153 156 159 151 144 138 137 137 158 172 225 26 305 348 330 293 316
210 223 219 202 189 189 166 150 137 130 132 126 124 118 128 130 138 135 134 139 136 130 122 122 143 138 153 157 156 151 145 128 136 151 160 175 146 337 340 291 300 336 308
207 209 208 189 168 175 143 136 129 126 128 126 138 141 148 140 160 156 150 150 146 147 142 126 121 119 124 132 123 136 145 129 122 149 152 157 184 234 37 352 329 349 340
204 214 183 165 184 182 161 153 158 160 145 158 159 158 161 159 162 158 153 148 146 144 138 140 139 136 147 149 143 133 118 121 131 165 164 184 187 7 318 299 289 277 278
204 213 172 164 171 164 154 161 135 147 170 168 170 170 161 162 166 159 148 141 141 143 149 151 152 156 176 165 150 134 129 118 118 138 161 167 43 41 25 291 269 266 269
200 202 165 164 154 146 178 174 184 156 164 181 164 172 165 155 168 163 152 147 148 152 157 162 160 167 169 172 158 149 150 150 133 128 128 111 104 73 36 337 25 338 305
186 180 158 161 171 181 169 177 150 196 144 138 163 165 154 159 173 172 158 147 149 153 156 156 162 162 170 176 169 159 173 175 160 145 149 131 92 75 57 42 36 348 293
155 152 162 170 173 167 153 140 141 152 131 157 158 148 142 164 176 180 174 164 163 159 164 160 165 171 172 177 178 177 182 147 152 140 145 160 180 143 92 55 44 290 32
56 126 150 148 147 151 158 144 149 160 166 178 170 161 161 171 181 189 189 180 171 164 169 166 163 173 167 176 170 177 165 142 163 154 176 182 194 183 61 12 360 328 321
43 56 77 112 128 158 169 168 161 173 183 185 189 189 183 179 189 191 192 187 179 160 158 164 168 170 169 167 186 175 151 161 167 176 182 179 190 88 309 275 276 266 259
72 70 70 110 130 164 187 181 182 186 193 190 192 200 189 184 192 190 189 184 183 164 159 161 169 163 166 140 166 176 174 189 199 181 172 139 139 192 216 343 289 329 319
32 43 27 34 213 224 225 207 208 213 210 205 208 202 191 196 203 188 181 181 179 170 151 153 155 149 158 157 181 192 174 174 197 167 165 178 188 192 190 185 227 258 161
27 36 29 6 314 283 264 258 242 252 233 239 224 207 209 213 186 188 189 189 182 172 165 173 180 182 183 193 196 193 186 197 194 170 180 186 184 189 174 201 218 206 150
21 16 11 347 302 282 262 260 263 230 249 247 238 225 209 193 184 189 191 189 185 173 196 194 191 188 193 200 197 195 190 191 172 177 178 186 185 179 155 197 218 192 192
24 12 351 337 320 303 283 271 264 260 241 238 234 229 222 210 197 195 194 188 189 201 206 199 201 191 200 202 192 189 186 169 176 179 181 180 183 182 180 196 215 181 183
5 1 360 332 315 304 297 281 269 263 256 248 204 223 221 221 213 205 204 205 202 206 202 209 205 198 203 199 191 185 184 177 181 177 179 178 181 184 192 176 208 177 154
358 355 338 312 307 298 283 274 269 263 262 254 241 229 204 202 213 215 213 213 214 216 212 211 201 198 197 200 191 182 174 176 181 181 180 181 184 189 188 170 191 187 197
337 335 337 306 300 301 294 284 275 268 264 262 260 242 224 214 221 221 220 218 223 222 220 215 206 194 193 187 191 184 181 181 187 184 181 182 177 181 202 172 178 178 198
339 335 331 322 311 299 291 288 283 275 271 267 264 256 247 240 232 229 230 229 229 230 221 207 202 195 192 187 188 191 191 191 184 183 180 174 172 174 191 179 189 190 187
338 335 328 319 312 307 295 285 280 279 279 276 275 268 252 241 245 239 234 234 232 227 199 190 196 194 192 193 193 194 197 198 188 174 173 177 173 177 185 184 186 194 198
333 325 319 315 311 309 301 299 296 292 286 281 279 276 270 265 252 257 254 246 242 214 204 202 204 202 197 195 197 196 196 194 181 177 170 169 178 178 182 181 190 195 193
329 328 322 319 319 313 309 302 298 294 290 288 285 279 278 278 270 265 268 273 250 214 214 214 217 215 202 196 195 191 182 180 172 167 172 166 172 174 190 182 181 187 184
330 323 317 315 312 313 312 309 305 302 298 294 292 288 283 279 277 274 269 266 272 239 234 226 227 225 214 206 196 182 176 178 167 169 164 171 173 175 186 188 183 186 180